[[{"header":{"parameterUnit":"m.s-1","parameterCategory":1,"la1":30.2991,"la2":30.254,"lo1":-89.0895,"lo2":-89.0444,"dy":0.0017,"dx":0.0017,"nx":28,"ny":28,"refTime":"2025-01-12T03:00:00:Z","depth":0,"parameterNumber":2,"parameterNumberName":"U-component_of_WINDS"},"data":[0,0,0,0,0,0,0,0,0,0,0,0,0,0,0,0,0,0,0,0,0,0,0,0,0,0,0,0,0,0,0,0,0,0,0,0,0,0,0,0,0,0,0,0,0,0,0,0,0,0,0,0,0,0,0,0,0,0,-5.5094,-5.5095,0,-5.5176,-5.5177,-5.5178,-5.5055,-5.505,-5.5046,-5.5042,-5.5129,-5.5136,-5.5142,0,0,0,0,0,0,0,0,0,0,0,0,0,-5.4834,-5.484,-5.5094,-5.5095,-5.5096,-5.5176,-5.5177,-5.5178,-5.5055,-5.505,-5.5045,-5.504,-5.5127,-5.5135,-5.5142,0,0,0,0,0,0,0,0,0,0,0,0,0,-5.4935,-5.4841,-5.5094,-5.5044,-5.5041,-5.5175,-5.5177,-5.5178,-5.5057,-5.505,-5.5044,-5.5038,-5.5125,-5.5134,-5.5144,-5.5331,0,0,-5.5173,-5.5177,0,0,0,0,0,0,0,0,-5.4929,-5.4945,-5.505,-5.5048,-5.5044,-5.5098,-5.5117,-5.523,-5.5058,-5.5051,-5.5042,-5.5034,-5.5125,-5.5134,-5.5163,-5.5336,-5.5339,-5.5173,-5.5179,-5.5183,-5.5186,0,0,0,0,0,0,0,-5.4922,-5.494,-5.5126,-5.5052,-5.5048,-5.5019,-5.5026,-5.5138,-5.5123,-5.5051,-5.5042,-5.5053,-5.5122,-5.5155,-5.5165,-5.5341,-5.5173,-5.5182,-5.5187,-5.5191,-5.5673,-5.568,0,0,0,0,0,0,-5.4921,-5.4935,-5.5124,-5.5129,-5.4969,-5.5029,-5.5037,-5.5088,-5.5121,-5.512,-5.5059,-5.5047,-5.5141,-5.5154,-5.5167,-5.5391,-5.5183,-5.5192,-5.5198,-5.5666,-5.5675,-5.5682,0,0,0,0,0,0,-5.4916,-5.4939,-5.512,-5.503,-5.505,-5.504,-5.5098,-5.5093,-5.5125,-5.5127,-5.5124,-5.5095,-5.5137,-5.5154,-5.5292,-5.5392,-5.5196,-5.5205,-5.5658,-5.5669,-5.5679,-5.5839,0,0,0,0,0,0,-5.4909,-5.4938,-5.5008,-5.5032,-5.5056,-5.5243,-5.5104,-5.5099,-5.5142,-5.5127,-5.516,-5.516,-5.5133,-5.5278,-5.5301,-5.5402,-5.5212,-5.5649,-5.5663,-5.5675,-5.5825,-5.5854,-5.5879,0,0,0,0,0,-5.49,-5.5051,-5.5013,-5.5036,-5.5144,-5.5249,-5.5263,-5.5228,-5.515,-5.5222,-5.5223,-5.5159,-5.5377,-5.5293,-5.5318,-5.5423,-5.5642,-5.5659,-5.5674,-5.5813,-5.5848,-5.5878,0,0,0,0,0,0,-5.504,-5.5053,-5.5011,-5.5173,-5.5211,-5.5228,-5.5317,-5.5266,-5.5327,-5.5312,-5.5267,-5.5275,-5.5424,-5.5437,-5.5343,-5.5608,-5.5497,-5.5519,-5.5594,-5.5628,-5.5654,-5.5649,-5.522,0,0,0,0,0,-5.5089,-5.5173,-5.518,-5.5323,-5.5344,-5.5328,-5.5372,-5.5342,-5.538,-5.5395,-5.5406,-5.5447,-5.5524,-5.5576,-5.5648,-5.5826,-5.5832,-5.591,-5.5937,-5.5959,-5.5979,-5.6077,-5.6112,-5.5735,-5.5735,-5.5734,0,0,-5.5193,-5.521,-5.5266,-5.5351,-5.5377,-5.5466,-5.5342,-5.544,-5.5506,-5.541,-5.5542,-5.5552,-5.5593,-5.5753,-5.5824,-5.5768,-5.6085,-5.598,-5.5998,-5.6005,-5.6097,-5.6132,-5.6164,-5.5746,-5.5744,-5.5742,0,0,-5.5427,-5.5448,-5.557,-5.5598,-5.5638,-5.5627,-5.5656,-5.5681,-5.5684,-5.5815,-5.5745,-5.5823,-5.5957,-5.5991,-5.6025,-5.6273,-5.6217,-5.6298,-5.644,-5.6535,-5.6565,-5.6591,-5.6681,-5.6714,-5.6317,-5.6318,-5.6318,0,-5.5551,-5.5681,-5.5639,-5.5744,-5.5784,-5.57,-5.5824,-5.5854,-5.5916,-5.5947,-5.5883,-5.6051,-5.6073,-5.624,-5.6301,-5.6331,-5.6364,-5.6294,-5.6563,-5.6589,-5.6613,-5.6699,-5.6733,-5.6327,-5.6326,-5.6325,-5.6324,0,-5.5833,-5.5924,-5.6018,-5.6079,-5.613,-5.6244,-5.6221,-5.6277,-5.6243,-5.6239,-5.6374,-5.6397,-5.6473,-5.651,-5.6478,-5.6674,-5.6638,-5.657,-5.6458,-5.6659,-5.6739,-5.6772,-5.6341,-5.6338,-5.6335,-5.6332,0,0,-5.6158,-5.6195,-5.623,-5.6258,-5.6296,-5.6367,-5.6477,-5.655,-5.6601,-5.6646,-5.6739,-5.6855,-5.6793,-5.6832,-5.6803,-5.6886,-5.7084,-5.6808,-5.6808,-5.686,-5.7303,-5.7356,-5.7394,-5.7046,-5.7052,-5.7057,-5.73,0,-5.6393,-5.6583,-5.6549,-5.6734,-5.6819,-5.6741,-5.6838,-5.6873,-5.6872,-5.6945,-5.6944,-5.7028,-5.6938,-5.6961,-5.704,-5.7043,-5.7173,-5.7025,-5.7134,-5.7139,-5.7128,-5.7435,-5.7491,-5.7719,-5.7331,-5.7336,-5.734,0,-5.6692,-5.6749,-5.6943,-5.6969,-5.7003,-5.7091,-5.7156,-5.7226,-5.7264,-5.7258,-5.7303,-5.7258,-5.737,-5.7256,-5.741,-5.7311,-5.7354,-5.7362,-5.737,-5.738,-5.7253,-5.7456,-5.7791,-5.7826,-5.7389,-5.7385,-5.7381,0,-5.6912,-5.7037,-5.7169,-5.7195,-5.7228,-5.7292,-5.7309,-5.7341,-5.7388,-5.7445,-5.7475,-5.7545,-5.7584,-5.764,-5.7616,-5.7535,-5.7777,-5.7659,-5.7776,-5.7777,-5.7832,-5.7829,-5.818,-5.7857,-5.7856,-5.7856,-5.7855,0,-5.7179,-5.7301,-5.7269,-5.735,-5.7486,-5.7446,-5.7581,-5.7589,-5.7619,-5.7702,-5.7638,-5.7718,-5.7681,-5.7759,-5.7741,-5.7873,-5.7891,-5.789,-5.7884,-5.7897,-5.7897,-5.7925,-5.7909,-5.7865,-5.7863,-5.7861,-5.786,0,-5.7448,-5.7431,-5.757,-5.759,-5.7599,-5.7698,-5.7715,-5.7793,-5.7787,-5.7893,-5.7916,-5.7907,-5.7996,-5.7977,-5.8074,-5.8062,-5.8229,-5.8202,-5.8216,-5.821,-5.8328,-5.8318,-5.8711,-5.8762,-5.8405,-5.8408,-5.8411,0,-5.762,-5.7712,-5.7742,-5.7793,-5.7815,-5.7897,-5.7944,-5.7909,-5.7961,-5.8013,-5.8085,-5.8167,-5.8231,-5.8376,-5.838,-5.8454,-5.843,-5.8563,-5.8441,-5.8451,-5.8435,-5.843,-5.844,-5.8588,-5.8592,-5.8595,-5.8598,0,-5.7928,-5.7915,-5.7984,-5.8053,-5.811,-5.8162,-5.8208,-5.8254,-5.8222,-5.8285,-5.8373,-5.8423,-5.8522,-5.8606,-5.8675,-5.8694,-5.8643,-5.8636,-5.8667,-5.8682,-5.8686,-5.8687,-5.8283,-5.8627,-5.8624,-5.8622,-5.8621,-5.8619,-5.8154,-5.8233,-5.8267,-5.8348,-5.8378,-5.8423,-5.8497,-5.8501,-5.8574,-5.8651,-5.8626,-5.8728,-5.8766,-5.8854,-5.8881,-5.8962,-5.8912,-5.8957,-5.8969,-5.8981,-5.8996,-5.8672,-5.8974,-5.8973,-5.8972,-5.8971,-5.8971,0,-5.846,-5.8478,-5.8552,-5.8619,-5.8683,-5.8626,-5.8675,-5.8732,-5.8823,-5.8862,-5.8926,-5.903,-5.9111,-5.9121,-5.9198,-5.926,-5.9239,-5.9282,-5.9278,-5.9283,-5.9035,-5.9001,-5.9298,-5.9298,-5.9298,-5.9298,-5.9298,-5.9298,-5.8627,-5.8758,-5.8749,-5.8896,-5.8913,-5.9012,-5.9044,-5.9086,-5.9117,-5.9235,-5.9302,-5.9307,-5.9336,-5.9414,-5.9487,-5.9488,-5.952,-5.9573,-5.9565,-5.9333,-5.9301,-5.927,-5.9237,-5.958,-5.958,-5.9807,-5.9809,-5.9811]},{"header":{"parameterUnit":"m.s-1","parameterCategory":1,"la1":30.2991,"la2":30.254,"lo1":-89.0895,"lo2":-89.0444,"dy":0.0017,"dx":0.0017,"nx":28,"ny":28,"refTime":"2025-01-12T03:00:00:Z","depth":0,"parameterNumber":3,"parameterNumberName":"V-component_of_WINDS"},"data":[0,0,0,0,0,0,0,0,0,0,0,0,0,0,0,0,0,0,0,0,0,0,0,0,0,0,0,0,0,0,0,0,0,0,0,0,0,0,0,0,0,0,0,0,0,0,0,0,0,0,0,0,0,0,0,0,0,0,-3.3616,-3.3616,0,-3.36,-3.36,-3.36,-3.3564,-3.3563,-3.3562,-3.3562,-3.3543,-3.3544,-3.3544,0,0,0,0,0,0,0,0,0,0,0,0,0,-3.3613,-3.3613,-3.3616,-3.3616,-3.3616,-3.36,-3.36,-3.36,-3.3564,-3.3563,-3.3562,-3.3561,-3.3543,-3.3544,-3.3544,0,0,0,0,0,0,0,0,0,0,0,0,0,-3.3607,-3.3613,-3.3616,-3.3596,-3.3594,-3.36,-3.36,-3.3599,-3.3564,-3.3563,-3.3562,-3.3561,-3.3543,-3.3544,-3.3544,-3.3567,0,0,-3.3545,-3.3545,0,0,0,0,0,0,0,0,-3.3608,-3.3607,-3.3599,-3.3598,-3.3595,-3.3583,-3.3592,-3.3589,-3.3564,-3.3576,-3.3562,-3.356,-3.3557,-3.3556,-3.3556,-3.3566,-3.3566,-3.3545,-3.3545,-3.3545,-3.3545,0,0,0,0,0,0,0,-3.3608,-3.3608,-3.361,-3.3599,-3.3597,-3.3587,-3.3585,-3.3591,-3.3573,-3.3575,-3.3572,-3.3571,-3.3556,-3.3555,-3.3555,-3.3565,-3.3545,-3.3545,-3.3545,-3.3545,-3.359,-3.3591,0,0,0,0,0,0,-3.3612,-3.3609,-3.361,-3.3609,-3.3599,-3.3588,-3.3586,-3.3588,-3.3573,-3.3569,-3.3571,-3.3569,-3.3556,-3.3555,-3.3554,-3.3578,-3.3545,-3.3545,-3.3545,-3.3589,-3.3591,-3.3592,0,0,0,0,0,0,-3.3612,-3.3612,-3.3611,-3.3608,-3.3607,-3.3589,-3.3592,-3.3588,-3.3588,-3.357,-3.3566,-3.3575,-3.3555,-3.3554,-3.3563,-3.3577,-3.3545,-3.3546,-3.3588,-3.359,-3.3591,-3.3627,0,0,0,0,0,0,-3.3612,-3.3613,-3.3622,-3.3609,-3.3608,-3.3622,-3.3593,-3.3589,-3.3588,-3.3585,-3.3572,-3.3569,-3.3554,-3.3563,-3.3564,-3.3577,-3.3546,-3.3587,-3.3589,-3.3591,-3.3625,-3.363,-3.3634,0,0,0,0,0,-3.3612,-3.3634,-3.3623,-3.3623,-3.3619,-3.3623,-3.3622,-3.3604,-3.359,-3.3598,-3.3587,-3.3569,-3.3576,-3.3565,-3.3565,-3.3578,-3.3586,-3.3588,-3.359,-3.3623,-3.3629,-3.3634,0,0,0,0,0,0,-3.3649,-3.3632,-3.362,-3.3638,-3.3632,-3.3617,-3.3627,-3.3612,-3.361,-3.3607,-3.3585,-3.3582,-3.3594,-3.3587,-3.3575,-3.3598,-3.3578,-3.358,-3.3602,-3.3608,-3.3612,-3.3613,-3.3546,0,0,0,0,0,-3.366,-3.3665,-3.3649,-3.3666,-3.3664,-3.3646,-3.3647,-3.3634,-3.3627,-3.3624,-3.3613,-3.3606,-3.3606,-3.3607,-3.3606,-3.3624,-3.3619,-3.3633,-3.3637,-3.3641,-3.3643,-3.3649,-3.3654,-3.3599,-3.3599,-3.3599,0,0,-3.3681,-3.3672,-3.3677,-3.3673,-3.3667,-3.3671,-3.3644,-3.3651,-3.3653,-3.3625,-3.3633,-3.3624,-3.3615,-3.3628,-3.3633,-3.3622,-3.3657,-3.3644,-3.3648,-3.3647,-3.3652,-3.3657,-3.3661,-3.3601,-3.3601,-3.36,0,0,-3.3722,-3.3717,-3.3729,-3.3723,-3.3714,-3.3702,-3.3705,-3.3691,-3.3685,-3.3692,-3.367,-3.3672,-3.3674,-3.3667,-3.3664,-3.3699,-3.3682,-3.3699,-3.3724,-3.3729,-3.3733,-3.3737,-3.3747,-3.3751,-3.3702,-3.3702,-3.3702,0,-3.375,-3.3756,-3.3737,-3.3744,-3.3742,-3.3717,-3.3728,-3.3723,-3.3714,-3.3712,-3.3701,-3.37,-3.3692,-3.3701,-3.371,-3.3709,-3.3709,-3.37,-3.3735,-3.3738,-3.3741,-3.375,-3.3755,-3.3704,-3.3704,-3.3703,-3.3703,0,-3.3789,-3.3793,-3.3804,-3.3796,-3.3795,-3.3804,-3.3785,-3.3786,-3.3773,-3.3761,-3.3767,-3.3757,-3.3752,-3.3754,-3.3741,-3.376,-3.3754,-3.3739,-3.3718,-3.3749,-3.3757,-3.376,-3.3707,-3.3706,-3.3705,-3.3705,0,0,-3.3854,-3.3833,-3.3837,-3.3832,-3.3819,-3.3821,-3.3828,-3.3823,-3.3823,-3.3818,-3.3821,-3.3822,-3.3807,-3.3803,-3.3789,-3.3794,-3.3819,-3.3778,-3.3777,-3.3784,-3.3837,-3.3847,-3.3852,-3.3808,-3.3809,-3.3809,-3.3837,0,-3.389,-3.3901,-3.3883,-3.3897,-3.3899,-3.3874,-3.3879,-3.3871,-3.386,-3.3859,-3.3846,-3.3846,-3.3828,-3.3825,-3.3829,-3.3816,-3.3829,-3.3813,-3.3809,-3.3809,-3.3811,-3.3856,-3.3868,-3.3894,-3.384,-3.3841,-3.3841,0,-3.3934,-3.3929,-3.3944,-3.3927,-3.3927,-3.3933,-3.3925,-3.3926,-3.3915,-3.3906,-3.3901,-3.3884,-3.3887,-3.3867,-3.387,-3.386,-3.3857,-3.3849,-3.385,-3.3848,-3.3826,-3.3853,-3.3902,-3.3906,-3.3847,-3.3846,-3.3846,0,-3.3976,-3.3974,-3.3982,-3.3978,-3.396,-3.3963,-3.3956,-3.3944,-3.3941,-3.3935,-3.3932,-3.3926,-3.3922,-3.3917,-3.3898,-3.3886,-3.3902,-3.3882,-3.3893,-3.3893,-3.3897,-3.3896,-3.3944,-3.3898,-3.3898,-3.3898,-3.3898,0,-3.4018,-3.4027,-3.4,-3.4005,-3.4013,-3.3992,-3.4001,-3.399,-3.3979,-3.398,-3.3958,-3.3959,-3.3934,-3.3932,-3.3917,-3.392,-3.3919,-3.391,-3.3906,-3.3911,-3.3912,-3.3908,-3.3905,-3.3899,-3.3899,-3.3898,-3.3898,0,-3.4067,-3.405,-3.4056,-3.4037,-3.4032,-3.4039,-3.4023,-3.4025,-3.4012,-3.4013,-3.4012,-3.3991,-3.3986,-3.3967,-3.3958,-3.3948,-3.3955,-3.3948,-3.3959,-3.3955,-3.3967,-3.3965,-3.4012,-3.4016,-3.397,-3.397,-3.397,0,-3.4094,-3.41,-3.4082,-3.408,-3.4074,-3.4072,-3.4069,-3.4048,-3.4045,-3.4031,-3.4035,-3.4029,-3.4022,-3.4016,-3.3999,-3.3992,-3.3983,-3.4,-3.3981,-3.3986,-3.398,-3.3979,-3.3979,-3.4003,-3.4004,-3.4004,-3.4005,0,-3.4142,-3.4132,-3.4129,-3.4122,-3.4119,-3.4112,-3.4104,-3.4104,-3.408,-3.4077,-3.4072,-3.4068,-3.4058,-3.4051,-3.404,-3.403,-3.4013,-3.4011,-3.4012,-3.4017,-3.4022,-3.4017,-3.3967,-3.4009,-3.4009,-3.4009,-3.4008,-3.4008,-3.4179,-3.4182,-3.4169,-3.4165,-3.4157,-3.4149,-3.4149,-3.4136,-3.4131,-3.4122,-3.4109,-3.4105,-3.4091,-3.4075,-3.4066,-3.4062,-3.4052,-3.4055,-3.4056,-3.4056,-3.4058,-3.4024,-3.406,-3.406,-3.406,-3.4059,-3.4059,0,-3.4224,-3.4214,-3.4211,-3.42,-3.4196,-3.418,-3.4169,-3.4167,-3.4164,-3.4153,-3.4146,-3.4139,-3.4132,-3.4114,-3.4104,-3.4104,-3.4095,-3.4102,-3.4101,-3.4098,-3.4069,-3.4067,-3.4109,-3.4109,-3.4109,-3.4109,-3.4109,-3.4109,-3.4247,-3.4251,-3.424,-3.4238,-3.4227,-3.4224,-3.4219,-3.421,-3.4201,-3.4194,-3.4188,-3.4176,-3.4161,-3.415,-3.4142,-3.4136,-3.4133,-3.4142,-3.4134,-3.4106,-3.4101,-3.4096,-3.4095,-3.4142,-3.4142,-3.4163,-3.4164,-3.4164]}]]